Theta_e
284 283 282 282 282 282 281 281 281 282 283 284 285 284 283 284 284 283 282 282 281 281 283 283 283 283 281 281 280 281 281 281 277 280 282 285 282 282 284 282 282 282 282
283 282 281 281 281 280 280 280 281 280 282 282 283 283 282 283 283 282 281 281 279 280 281 281 281 283 280 279 278 280 280 280 278 276 280 279 279 281 281 279 280 281 280
281 281 280 279 279 279 279 280 280 280 280 281 281 281 281 281 281 282 282 280 279 279 280 279 279 280 279 278 277 278 280 280 278 278 277 278 279 280 278 278 278 278 280
281 280 279 279 278 278 279 279 279 279 279 279 280 280 280 280 280 281 281 280 278 278 279 279 278 278 278 278 278 278 279 278 277 276 277 276 277 279 277 276 275 276 276
280 279 278 278 278 279 279 279 279 279 278 279 279 278 278 279 280 281 281 280 279 278 278 278 279 278 280 280 278 277 278 278 276 275 275 275 275 276 275 275 274 273 274
279 278 278 278 278 278 278 278 278 278 277 278 278 277 277 279 282 283 282 279 279 279 278 278 278 277 278 279 279 280 280 277 276 274 275 272 274 274 275 274 273 270 268
278 278 277 277 277 278 277 277 276 275 276 276 276 277 277 277 281 282 282 279 278 278 278 278 278 278 277 276 278 280 279 280 279 276 273 272 272 274 274 273 272 270 269
277 276 276 276 276 277 276 276 274 274 274 275 275 276 276 277 280 280 280 279 278 278 278 278 278 277 276 277 277 276 277 276 276 277 275 273 273 275 274 273 271 271 270
276 275 275 275 276 275 275 274 273 274 274 275 276 275 275 275 278 279 279 277 276 276 277 277 278 276 277 279 276 275 274 274 277 277 276 276 276 276 275 271 267 267 264
275 275 275 275 275 274 273 273 273 273 273 274 273 274 274 274 276 277 278 276 275 274 275 277 277 276 278 279 276 274 271 273 272 271 270 271 271 272 273 271 269 265 265
275 274 274 274 273 273 272 271 271 270 271 270 271 271 272 273 273 276 277 276 275 274 274 274 275 277 279 278 277 272 272 275 269 266 266 266 267 268 269 269 269 268 265
273 273 271 270 271 272 267 267 266 266 266 266 267 268 271 272 274 275 277 277 277 275 273 273 274 277 276 276 274 275 275 271 266 264 263 264 265 265 266 267 267 268 267
270 268 267 267 269 269 264 265 265 265 264 266 268 268 269 271 271 274 275 276 277 275 274 275 274 274 273 270 271 272 268 266 264 262 262 263 264 265 265 264 265 265 265
267 267 268 266 266 266 268 268 265 264 264 266 266 266 266 268 269 270 271 272 275 274 273 269 270 269 269 268 265 265 265 264 263 262 262 263 263 262 262 263 261 261 259
267 267 267 267 265 266 267 266 267 268 268 263 263 265 264 264 268 274 274 273 272 274 266 256 258 258 260 261 261 260 260 261 260 261 260 260 260 260 260 261 259 258 253
267 267 267 266 264 265 264 264 270 272 273 273 273 271 269 272 274 274 274 275 274 274 258 252 255 258 259 259 259 259 260 260 260 260 259 258 258 258 258 258 258 251 254
267 266 265 265 263 262 262 261 261 265 269 270 270 271 271 272 272 273 274 274 270 265 251 251 255 257 258 259 259 259 258 259 259 258 257 257 257 256 255 255 255 255 254
263 263 263 262 261 261 262 260 259 257 258 260 265 267 269 269 270 271 272 265 254 254 248 248 251 253 255 256 257 256 257 257 256 256 255 255 254 253 253 253 253 252 253
263 263 262 261 261 261 260 258 258 257 256 254 254 260 262 266 267 268 267 250 248 248 248 251 250 252 254 254 255 255 254 254 254 254 254 253 252 248 252 252 252 252 252
262 263 261 260 259 259 259 259 258 257 255 254 252 252 252 254 254 253 249 246 246 249 250 250 252 252 251 253 253 253 251 253 252 252 252 251 251 249 251 251 252 251 251
262 260 262 259 258 259 261 258 257 254 253 252 255 254 265 257 251 250 250 250 249 250 251 251 251 251 251 251 250 250 250 251 251 252 252 252 251 249 252 252 252 252 251
260 259 258 259 262 261 259 258 256 252 252 252 255 253 262 251 250 250 249 248 249 249 250 249 250 251 251 251 251 251 251 251 251 251 251 251 251 252 253 253 254 253 252
259 258 258 260 260 259 257 255 251 250 250 252 252 253 252 250 250 250 249 249 249 249 249 247 248 250 251 249 249 250 250 250 251 252 251 251 251 251 251 252 253 253 253
258 259 262 260 257 256 256 254 251 251 249 252 252 251 251 251 250 251 250 249 248 249 250 247 248 249 249 250 250 250 250 250 251 251 250 251 251 251 251 252 252 253 253
259 260 258 257 254 256 254 252 249 248 251 251 251 250 249 250 249 250 249 247 247 248 249 248 247 247 248 248 248 249 250 252 251 252 252 252 252 252 252 252 253 253 254
258 256 255 253 254 254 251 250 250 251 251 251 251 250 250 250 250 249 248 247 248 248 248 249 249 247 247 248 249 250 254 257 257 257 258 257 255 255 255 254 253 254 254
Wind_Speed
5 5 4 4 4 4 4 5 5 5 6 7 6 6 7 5 6 6 7 7 9 8 8 9 9 7 7 5 6 8 7 8 12 16 12 12 14 14 12 10 13 14 14
4 4 4 5 4 4 5 5 5 6 5 5 5 6 6 7 6 6 6 7 9 9 9 9 9 7 6 6 6 9 7 8 10 19 14 13 14 15 12 14 11 11 13
4 4 4 5 5 5 5 5 5 5 5 5 6 6 6 6 5 5 4 4 7 7 8 8 8 8 7 6 8 8 9 7 8 11 15 11 11 11 11 10 11 12 11
4 4 4 4 3 3 4 4 5 5 5 5 5 5 5 5 5 5 4 3 4 5 7 6 7 8 9 9 9 10 10 7 8 10 11 12 11 11 8 11 14 10 13
2 2 2 2 2 3 3 3 4 4 5 5 4 4 4 5 5 7 5 5 4 6 6 7 7 8 12 16 10 11 11 7 8 10 11 9 11 12 11 10 11 12 12
1 2 1 2 2 2 3 3 4 4 4 4 4 5 5 6 13 15 12 5 7 8 8 7 7 7 10 17 20 22 18 11 11 10 7 11 14 13 10 10 10 11 9
4 3 2 2 2 2 3 3 3 4 4 5 5 5 6 6 14 16 16 6 7 7 8 8 9 7 8 11 17 19 16 14 16 12 10 10 14 14 11 12 10 10 9
4 4 3 2 3 2 3 3 3 3 5 5 5 5 6 6 15 16 18 8 7 9 8 7 8 8 8 16 13 13 12 7 10 6 8 10 11 12 10 9 10 10 10
5 4 4 4 3 3 4 4 3 3 4 4 6 7 7 8 14 17 15 7 9 10 8 9 6 9 15 21 13 14 11 11 9 15 18 18 19 18 15 7 7 8 6
6 6 5 4 4 4 4 3 1 3 5 5 7 6 7 8 13 16 14 7 9 8 9 9 13 12 22 20 12 10 11 12 9 10 12 12 11 10 14 7 7 7 7
5 5 5 5 4 4 3 1 2 3 4 4 6 6 7 7 9 16 16 9 7 8 7 7 7 20 18 21 22 8 12 13 11 8 8 7 7 7 6 7 9 7 7
5 5 4 3 3 2 2 2 2 3 3 4 5 5 4 5 9 13 16 16 16 8 8 7 8 16 19 20 14 18 20 14 6 6 7 7 7 8 8 8 9 7 7
3 3 3 3 3 2 2 3 2 2 2 3 4 5 5 5 4 15 18 18 17 10 7 13 13 16 17 11 15 17 10 6 6 6 7 7 7 8 10 8 8 8 9
5 5 4 4 3 2 1 2 2 2 2 3 4 5 5 5 4 6 7 8 11 10 7 4 9 13 12 11 6 7 5 5 6 7 7 8 7 7 7 6 7 8 7
5 5 4 3 3 2 3 3 3 4 5 4 4 4 3 3 5 14 13 8 7 8 2 3 3 4 6 5 5 4 3 5 5 6 6 7 8 7 7 6 6 6 2
6 4 4 3 2 2 2 4 8 10 10 10 12 8 2 13 17 17 17 18 14 18 4 3 3 4 6 6 6 6 6 6 6 6 7 6 7 7 8 7 6 2 6
8 4 3 4 3 3 3 3 4 2 8 9 8 10 13 14 15 16 17 15 17 11 2 3 4 5 6 6 6 6 8 7 7 6 7 7 7 7 7 7 7 6 7
6 6 4 4 4 3 3 3 2 2 4 4 5 10 11 14 14 15 14 12 6 5 1 3 4 5 6 6 6 6 7 7 7 7 7 7 6 6 7 7 7 7 7
7 5 5 4 4 3 2 2 3 3 4 3 3 6 5 14 14 11 14 1 3 4 3 5 3 5 6 6 6 6 7 8 7 8 7 7 6 3 8 7 7 8 8
6 7 5 4 3 3 3 3 3 3 3 3 3 4 3 3 2 3 2 2 3 4 5 4 5 5 5 6 7 6 6 7 7 6 7 6 6 4 7 8 7 8 7
5 4 6 4 4 4 3 3 3 2 3 3 5 3 13 2 3 3 4 4 4 4 5 5 6 5 5 6 6 6 7 8 7 7 7 7 5 6 6 7 8 7 7
4 4 4 5 4 3 3 3 3 3 3 4 4 3 12 1 3 4 5 5 5 5 5 5 6 6 6 7 7 7 8 9 8 7 7 7 7 8 7 8 8 7 7
4 5 4 3 3 4 3 3 2 2 3 4 4 5 3 3 4 4 5 5 5 5 5 4 5 7 6 6 6 7 8 9 8 7 8 8 8 8 7 8 8 8 8
5 6 5 3 4 3 3 2 3 5 4 4 4 4 4 4 5 6 6 5 5 6 5 5 6 9 8 8 7 7 7 8 7 8 9 9 10 9 8 9 9 10 10
5 4 4 4 4 3 3 3 3 3 3 4 4 3 3 4 5 5 5 5 5 6 8 7 6 9 11 12 12 14 14 17 12 11 9 11 13 13 11 9 11 10 12
4 4 4 4 3 4 4 3 3 3 4 3 3 4 4 5 5 5 5 6 6 7 9 8 9 12 13 12 13 14 16 17 14 16 12 10 11 10 9 11 13 10 12
Wind_Direction
62 61 57 41 31 34 39 22 11 5 13 12 11 17 13 8 12 12 6 11 1 354 349 359 351 5 356 351 336 336 336 325 303 306 316 326 331 329 319 338 327 326 327
73 68 56 44 28 33 29 18 14 13 8 10 8 16 8 1 353 359 3 7 2 351 347 350 350 351 337 342 329 319 322 316 322 306 325 324 327 323 330 332 331 328 324
77 66 48 32 26 22 15 5 12 10 11 11 15 13 0 346 343 342 359 6 354 340 339 340 334 336 337 335 329 323 319 323 317 309 309 324 318 319 328 325 327 327 324
65 54 37 21 13 18 14 13 11 4 9 3 7 356 350 328 321 323 313 332 333 336 325 319 326 331 323 331 325 322 321 316 322 312 310 315 320 326 325 329 330 339 327
77 64 13 343 360 12 16 10 0 5 1 347 335 323 316 325 337 339 333 329 313 317 317 320 323 319 330 333 332 321 322 317 325 321 309 321 321 329 339 337 325 327 327
181 221 269 334 325 349 359 356 357 347 326 322 332 334 336 338 333 339 337 329 319 309 317 315 315 312 334 332 327 321 323 323 320 317 319 329 321 326 334 335 329 334 335
216 224 241 256 279 328 342 345 344 330 328 332 331 328 324 320 329 332 330 318 317 300 305 311 316 327 326 318 313 327 323 310 323 316 331 327 318 320 331 328 332 322 312
225 233 230 249 282 297 308 317 321 325 332 323 317 313 316 316 333 334 329 321 324 315 306 302 311 318 323 318 330 327 322 335 308 332 332 314 308 317 326 329 323 308 309
236 249 243 235 251 266 274 304 322 316 309 313 330 327 330 324 330 336 332 340 322 320 321 315 311 304 315 326 334 324 336 324 342 332 327 325 327 329 329 337 328 331 325
234 231 225 229 235 251 269 292 280 308 317 329 323 319 317 317 328 334 334 324 322 320 314 322 319 318 315 325 333 332 327 323 343 340 329 328 325 317 335 337 324 321 327
224 212 219 225 233 250 264 245 273 303 315 305 311 318 310 308 317 326 328 326 315 310 320 318 315 312 318 332 331 338 308 331 348 330 312 311 315 321 326 329 328 320 313
205 215 215 210 243 243 218 271 297 294 298 307 303 300 288 299 308 320 316 319 314 320 314 309 305 322 333 331 336 322 331 347 325 311 311 311 318 321 320 319 313 305 296
176 215 224 242 241 227 210 256 284 280 290 301 300 301 304 304 294 311 311 309 313 312 302 311 338 337 336 336 333 334 358 329 317 311 309 310 311 307 308 311 308 304 294
209 228 227 228 248 237 244 232 228 250 259 264 270 273 282 290 285 286 277 279 284 299 339 343 336 332 334 336 326 330 324 314 310 305 305 306 303 309 311 312 315 322 316
215 224 226 208 215 237 239 230 248 219 224 234 237 241 267 281 289 304 316 315 305 311 45 3 347 341 331 325 322 310 293 297 297 301 303 305 306 310 311 319 309 313 262
222 221 218 206 211 227 239 274 270 273 283 291 298 301 277 303 307 314 316 313 350 336 31 354 321 318 312 314 315 314 312 307 305 308 303 298 302 307 309 313 302 275 293
224 208 197 204 204 215 230 234 287 305 300 295 299 315 313 307 317 313 315 329 352 3 25 304 303 308 306 308 307 305 301 302 304 295 294 294 298 301 305 306 308 306 306
210 203 197 201 210 216 230 232 213 247 297 301 303 318 315 322 317 318 329 359 344 344 240 267 285 287 294 296 296 294 295 298 297 293 290 289 291 291 301 298 300 298 300
206 209 201 202 208 212 195 198 226 244 254 260 316 321 319 323 322 330 345 148 249 282 276 295 259 277 284 286 287 287 283 286 286 289 287 284 285 266 291 286 287 286 286
207 205 186 187 187 190 206 216 235 251 265 265 272 262 297 320 319 311 268 249 271 272 275 270 283 278 278 281 288 285 283 286 285 278 278 273 272 254 278 285 284 289 287
196 184 187 178 193 202 208 207 227 232 247 263 266 249 288 292 295 276 295 292 283 288 289 289 295 284 282 283 274 276 277 278 273 275 282 277 273 277 268 264 273 272 273
180 178 175 197 199 196 191 199 215 222 234 251 276 274 308 329 288 279 281 276 272 258 264 270 281 283 281 278 280 281 279 281 283 276 279 281 280 281 280 280 280 276 278
166 169 183 187 183 171 188 205 202 212 241 249 258 279 277 272 272 271 271 275 275 279 277 257 267 281 277 262 254 259 271 277 278 277 282 286 283 278 278 280 282 282 279
172 185 193 176 166 191 196 196 210 226 233 251 259 264 269 276 282 288 287 283 280 284 281 268 269 270 281 281 276 267 253 259 264 266 255 263 271 274 267 270 271 273 275
173 168 162 171 180 181 191 216 219 226 239 244 260 253 262 268 278 283 279 278 279 285 286 280 271 271 275 278 279 279 275 279 266 258 258 254 257 261 260 264 268 272 271
153 156 165 157 164 190 196 205 224 228 248 255 250 259 266 280 284 285 287 289 290 286 290 286 278 275 278 281 276 276 281 285 284 272 256 249 253 259 254 252 261 260 267